Vientiane, Lao Peoples Republic

7:22 AM +07 on July 21, 2018 (GMT +0700)
Vientiane

Weather History for 48940 - July, 2018

Change the Weather History Date:

Thursday, July 12, 2018

  Actual Average Record
Temperature  
Mean Temperature 84 °F -  
Max Temperature 90 °F 82 °F - ()
Min Temperature 77 °F 77 °F - ()
Cooling Degree Days 18    
Growing Degree Days 34 (Base 50)    
Moisture  
Dew Point 78 °F    
Average Humidity 88    
Maximum Humidity 100    
Minimum Humidity 66    
Precipitation  
Precipitation 0.00 in 0.38 in - ()
Sea Level Pressure  
Sea Level Pressure 29.59 in    
Wind  
Wind Speed 2 mph ()    
Max Wind Speed 12 mph    
Max Gust Speed -    
Visibility 3.4 miles    
Events Rain , Thunderstorm    
T = Trace of Precipitation, MM = Missing Value Source: Averaged Metar Reports

Daily Weather History Graph

Daily Weather History Graph

Search for Another Location

Airport or City:

Astronomy

Jul. 12, 2018 Rise Set
Actual Time 5:41 AM +07 6:49 PM +07
Civil Twilight 5:17 AM +07 7:13 PM +07
Nautical Twilight 4:49 AM +07 7:41 PM +07
Astronomical Twilight 4:20 AM +07 8:10 PM +07
Moon 4:33 AM +07 (7/12) 6:01 PM +07 (7/12)
Length of Visible Light 13h 55m
Length of Day
13h 07m
Waning Crescent, 1% of the Moon is Illuminated
Jul 12
Waning Crescent
Jul 13
New
Jul 20
First Quarter
Jul 28
Full
Aug 5
Last Quarter

Hourly Weather History & Observations

Time (+07) Temp. Heat Index Dew Point Humidity Pressure Visibility Wind Dir Wind Speed Gust Speed Precip Events Conditions
1:00 AM 78 °F - 77 °F 96% 29.57 in 2 mi East 2.2 mph - - Rain Light Rain
6:30 AM 77.0 °F - 77.0 °F 100% 29.62 in 3.1 mi NNE 2.3 mph - N/A   Drizzle
7:00 AM 78 °F - 77 °F 95% 29.57 in 2 mi North 2.2 mph - - Rain Light Drizzle
7:00 AM 77.0 °F - 77.0 °F 100% 29.62 in 3.1 mi NE 2.3 mph - N/A   Drizzle
8:00 AM 78.8 °F - 78.8 °F 100% 29.65 in 3.7 mi SW 2.3 mph - N/A   Drizzle
8:30 AM 80.6 °F 88.1 °F 78.8 °F 94% 29.65 in 3.7 mi SSW 2.3 mph - N/A   Drizzle
9:00 AM 80.6 °F 88.1 °F 78.8 °F 94% 29.65 in 3.7 mi WSW 2.3 mph - N/A   Drizzle
9:30 AM 80.6 °F 87.1 °F 77.0 °F 89% 29.65 in 3.7 mi Calm Calm - N/A   Drizzle
10:00 AM 81 °F - 76 °F 81% 29.59 in 3 mi SW 2.2 mph - - Rain Light Drizzle
10:00 AM 82.4 °F 90.9 °F 77.0 °F 84% 29.65 in 4.3 mi South 2.3 mph - N/A   Drizzle
11:30 AM 84.2 °F 94.1 °F 77.0 °F 79% 29.65 in 4.3 mi South 2.3 mph - N/A   Mostly Cloudy
12:00 PM 86.0 °F 99.3 °F 78.8 °F 79% 29.62 in 4.3 mi WSW 2.3 mph - N/A   Mostly Cloudy
12:30 PM 86.0 °F 95.1 °F 75.2 °F 70% 29.62 in 4.3 mi West 4.6 mph - N/A   Mostly Cloudy
1:00 PM 88 °F - 79 °F 68% 29.55 in 5 mi WSW 2.2 mph - -   Haze
1:00 PM 87.8 °F 102.5 °F 78.8 °F 75% 29.56 in 5.0 mi WSW 4.6 mph - N/A   Mostly Cloudy
2:00 PM 89.6 °F 102.2 °F 77.0 °F 66% 29.59 in 5.0 mi West 2.3 mph - N/A   Mostly Cloudy
2:30 PM 89.6 °F 104.7 °F 78.8 °F 70% 29.56 in 5.0 mi WSW 2.3 mph - N/A   Mostly Cloudy
3:00 PM 87.8 °F 99.7 °F 77.0 °F 70% 29.56 in 3.1 mi SSW 2.3 mph - N/A Rain Rain
3:30 PM 82.4 °F 90.9 °F 77.0 °F 84% 29.56 in 1.2 mi East 11.5 mph - N/A Rain , Thunderstorm Thunderstorms and Rain
4:00 PM 81 °F - 77 °F 83% 29.48 in 4 mi SSE 2.2 mph - - Rain , Thunderstorm Thunderstorms and Rain
4:00 PM 80.6 °F 87.1 °F 77.0 °F 89% 29.56 in 4.3 mi South 6.9 mph - N/A Thunderstorm Thunderstorm
4:30 PM 82.4 °F 90.9 °F 77.0 °F 84% 29.53 in - South 4.6 mph - N/A   Mostly Cloudy
5:00 PM 82.4 °F 90.9 °F 77.0 °F 84% 29.53 in 4.3 mi South 2.3 mph - N/A   Mostly Cloudy
6:00 PM 82.4 °F 90.9 °F 77.0 °F 84% 29.56 in 3.7 mi NE 2.3 mph - N/A   Mostly Cloudy
7:00 PM 82 °F - 78 °F 83% 29.49 in 3 mi South 2.2 mph - -   Mist
7:00 PM 80.6 °F 87.1 °F 77.0 °F 89% 29.56 in 3.7 mi Calm Calm - N/A   Scattered Clouds
7:30 PM 80.6 °F 87.1 °F 77.0 °F 89% 29.56 in 3.1 mi Calm Calm - N/A   Scattered Clouds
8:00 PM 78.8 °F - 78.8 °F 100% 29.59 in 2.5 mi Calm Calm - N/A   Scattered Clouds
8:30 PM 78.8 °F - 78.8 °F 100% 29.59 in 2.5 mi South 2.3 mph - N/A   Scattered Clouds
9:00 PM 78.8 °F - 78.8 °F 100% 29.62 in 2.5 mi Calm Calm - N/A   Scattered Clouds
9:30 PM 78.8 °F - 78.8 °F 100% 29.62 in 2.5 mi SSW 2.3 mph - N/A   Scattered Clouds
10:30 PM 78.8 °F - 78.8 °F 100% 29.65 in 2.5 mi SE 2.3 mph - N/A   Mostly Cloudy
11:00 PM 78.8 °F - 78.8 °F 100% 29.65 in 2.5 mi WSW 2.3 mph - N/A   Mostly Cloudy
11:30 PM 78.8 °F - 78.8 °F 100% 29.65 in 2.5 mi SW 2.3 mph - N/A   Mostly Cloudy